Presure
293 290 284 280 280 289 299 316 274 342 383 219 216 202 199 180 189 133 199 179 192 165 160 171 151 168 159 158 149 150 150 151 150 148 145 142 144 142 144 148 143 144 143 144
292 319 286 284 229 281 300 303 307 279 346 253 221 210 206 195 111 192 204 212 177 161 180 180 171 168 158 157 160 160 151 146 153 149 148 125 148 145 137 84 147 141 149 151
295 308 285 266 177 281 284 300 306 269 323 349 224 214 219 207 194 166 193 204 197 167 161 188 180 170 163 163 163 162 159 151 161 155 146 150 150 151 151 152 152 150 152 150
289 296 289 270 275 270 276 285 301 306 298 301 321 218 213 213 192 175 165 167 202 187 176 162 185 179 169 169 167 163 161 159 160 159 158 157 155 155 138 140 144 150 148 147
289 292 285 273 277 271 272 280 295 299 274 284 333 316 222 217 213 190 183 197 153 209 175 190 182 162 164 179 176 164 164 163 163 167 166 157 146 150 151 153 151 153 164 159
284 295 274 279 273 268 270 275 294 290 301 271 287 272 323 230 220 210 187 195 202 160 193 192 172 189 177 191 185 172 168 159 156 157 162 164 161 159 160 161 160 158 159 158
290 288 280 284 277 270 279 277 296 292 292 285 282 279 344 275 269 223 209 201 201 204 214 154 192 198 179 192 190 185 174 167 165 166 168 163 153 161 169 165 165 161 164 165
284 276 298 281 286 269 271 285 274 284 282 287 311 328 125 319 342 276 224 209 206 196 234 205 209 201 199 191 198 195 189 191 188 185 173 169 167 165 163 159 167 167 165 167
283 274 278 276 277 282 276 274 281 270 297 297 304 325 96 324 276 322 300 259 210 209 182 180 153 154 195 193 201 205 192 192 194 188 186 188 188 190 187 185 185 185 182 182
276 275 272 273 275 280 286 277 266 284 271 302 292 303 323 348 336 280 271 348 271 264 227 193 186 222 200 204 205 199 194 203 202 190 185 190 193 190 187 182 182 180 180 185
293 283 272 271 274 276 275 287 277 290 289 293 300 330 339 300 313 343 279 290 284 358 322 308 229 194 207 205 205 208 208 200 194 189 186 189 189 187 181 184 182 177 183 176
282 296 286 272 268 275 168 277 281 282 287 331 303 303 298 326 350 361 321 285 271 276 320 306 314 312 232 233 234 208 205 207 203 200 198 194 189 189 185 187 179 184 190 184
318 312 289 280 277 275 271 274 279 285 298 281 286 288 290 303 313 355 343 297 271 310 324 296 285 286 286 293 296 276 239 239 232 245 236 213 196 201 201 197 193 195 183 194
298 302 310 291 280 273 271 275 275 279 291 285 310 288 291 310 320 333 312 318 287 257 276 296 291 285 284 284 283 285 276 266 253 250 245 244 240 233 232 232 234 227 231 228
283 288 292 289 298 291 270 264 281 280 293 286 272 281 296 305 304 319 324 294 305 279 251 335 294 224 280 279 281 282 281 275 269 259 250 242 236 235 236 236 237 237 239 258
276 290 282 277 282 272 274 276 281 291 280 278 269 284 266 291 297 300 314 321 312 299 304 249 278 301 280 269 269 271 273 285 287 287 273 258 263 275 260 261 256 260 247 253
283 281 282 272 259 260 261 266 268 272 275 273 268 267 291 296 283 284 288 291 313 304 301 282 285 292 295 265 272 264 257 257 255 274 268 249 259 256 241 259 241 252 240 236
274 273 276 264 270 266 263 261 265 255 261 261 260 261 271 281 294 273 280 279 281 291 281 282 287 272 274 281 277 267 256 260 253 248 260 245 268 242 237 245 245 236 228 226
266 271 278 264 265 267 267 270 267 272 256 259 255 253 260 262 266 277 284 287 286 273 283 299 282 284 266 260 257 256 262 255 249 248 260 237 247 232 226 242 234 226 220 230
275 273 272 271 269 275 278 282 293 271 262 265 255 252 251 253 258 263 270 272 271 280 282 280 284 290 285 279 257 249 247 246 244 244 234 245 230 229 230 223 234 227 231 251
293 284 272 269 263 265 264 265 274 288 288 273 266 255 261 253 252 254 261 265 266 268 269 273 275 275 281 283 286 271 266 257 246 240 241 238 241 241 235 236 243 258 246 252
266 262 263 267 268 270 280 271 269 267 273 290 286 266 260 251 259 258 250 257 256 257 258 257 256 258 257 259 262 260 261 263 267 269 262 256 252 250 258 252 241 245 247 269
267 265 261 256 254 258 259 274 261 264 260 268 284 293 290 273 267 258 258 252 256 251 249 251 249 250 247 242 244 247 245 245 250 246 244 248 247 243 241 240 247 266 260 249
281 280 276 275 274 277 279 281 266 265 257 282 273 282 287 262 271 264 257 246 263 259 258 257 252 254 262 258 258 262 256 249 246 243 247 248 237 243 255 270 258 240 248 250
278 270 265 266 267 272 278 278 285 278 253 278 273 274 281 281 263 265 258 256 267 266 266 263 262 261 262 262 260 258 258 258 258 256 252 252 257 265 256 236 235 245 239 236
269 263 260 263 266 267 268 274 279 280 273 268 269 266 270 268 269 263 266 262 254 260 256 250 248 245 246 249 248 246 247 247 245 249 261 259 249 234 232 240 234 230 233 233
Wind_Speed
90 84 80 75 70 64 60 57 86 56 53 114 116 112 111 92 92 57 95 90 108 97 81 98 75 99 91 88 74 78 75 76 77 76 71 69 70 69 74 74 67 71 70 72
88 78 79 76 63 69 59 63 70 91 64 111 118 113 112 101 42 90 98 104 99 87 103 108 101 99 89 89 92 91 80 70 79 73 74 58 74 74 71 27 77 68 81 83
83 76 80 77 48 68 68 60 66 91 68 60 116 114 110 100 96 83 95 102 99 94 88 109 107 102 96 98 100 99 92 75 90 86 72 81 81 83 84 84 83 81 84 79
81 80 78 77 75 76 72 69 63 68 77 78 76 114 106 106 93 87 84 86 103 98 99 91 110 107 100 103 105 100 95 90 91 91 92 92 93 92 68 69 72 81 79 79
78 79 77 78 74 76 74 71 63 66 85 84 63 99 108 107 103 91 91 101 77 110 91 105 106 91 89 107 109 100 100 99 98 100 101 92 75 85 87 92 88 91 104 100
77 78 76 76 73 74 74 71 62 67 66 83 84 92 92 110 105 106 100 103 106 82 102 102 95 107 102 110 111 106 104 92 86 88 96 102 96 94 98 101 102 101 101 101
79 75 75 73 73 72 68 70 61 64 67 67 78 84 52 99 100 107 106 105 103 104 112 79 104 110 99 111 111 113 109 103 100 100 104 99 86 96 106 102 104 98 104 107
76 68 68 70 70 69 67 61 66 62 65 65 61 55 47 83 75 105 109 108 106 99 112 110 115 110 111 106 112 112 109 111 111 111 107 103 104 102 100 94 105 109 108 109
72 69 63 61 63 66 65 64 64 66 57 61 58 49 36 63 88 79 100 104 105 110 91 92 83 82 107 101 110 114 107 107 108 106 107 107 107 107 107 108 108 108 110 111
64 69 64 63 62 61 58 62 64 62 61 55 55 50 41 43 51 83 90 71 104 105 108 102 95 107 106 113 113 106 101 108 109 103 100 104 106 106 106 103 105 105 105 110
71 70 68 64 62 59 56 57 59 57 55 49 44 30 34 49 49 45 80 81 88 72 81 95 107 97 97 108 110 113 114 109 105 100 98 103 102 101 97 100 101 98 105 98
54 64 73 68 59 57 36 56 52 49 44 26 29 32 36 29 31 41 52 69 78 79 77 81 75 83 108 112 116 115 114 116 112 112 112 109 105 106 103 104 97 102 113 107
24 38 66 68 62 54 48 49 44 38 30 28 27 32 32 33 32 35 41 57 73 66 77 80 83 86 88 88 92 103 110 110 115 108 113 115 111 115 117 117 115 117 107 109
23 30 35 60 54 47 45 39 35 30 24 27 16 29 32 28 27 37 43 45 58 70 66 78 82 83 84 86 87 89 98 102 102 104 103 103 105 106 106 106 105 107 106 106
21 24 26 29 32 38 36 32 29 27 28 24 28 25 27 27 27 26 46 48 48 59 72 58 81 64 81 82 82 83 87 91 95 99 99 100 101 102 103 103 103 105 101 81
16 19 22 20 24 25 27 27 26 28 27 26 28 24 33 26 26 22 20 30 51 52 50 70 67 79 80 75 75 76 77 69 64 64 70 85 83 69 80 73 77 70 77 73
24 22 18 19 27 27 25 23 24 25 26 27 26 27 21 25 28 28 25 24 26 49 45 53 53 52 72 71 69 70 73 74 75 60 62 75 70 67 76 65 75 67 70 73
22 22 23 26 25 29 31 32 30 33 31 32 30 28 25 22 25 35 33 34 34 36 48 51 51 55 56 57 66 69 69 66 70 71 62 72 57 68 72 67 62 67 72 76
26 24 23 25 26 29 31 34 37 38 38 38 37 35 32 31 30 25 27 28 34 42 35 38 54 57 62 61 61 64 62 65 63 64 54 67 62 68 73 62 68 72 76 79
27 27 27 27 27 26 26 27 30 36 40 44 42 41 41 38 37 35 29 29 31 28 31 35 37 44 55 63 66 65 66 67 68 67 68 61 70 71 70 73 75 75 80 81
23 25 26 27 28 27 27 28 26 26 35 42 44 43 44 43 41 40 37 32 31 30 31 31 32 36 37 42 49 60 64 71 70 68 70 72 71 70 73 75 77 68 68 68
25 25 25 24 24 24 26 29 28 28 27 30 40 46 44 42 45 44 42 39 39 39 40 39 38 37 37 38 38 42 44 47 48 52 57 62 64 66 63 59 61 63 61 59
28 29 28 27 28 28 27 28 31 31 30 29 30 34 38 48 48 44 45 43 44 45 44 44 44 45 45 47 47 47 48 50 47 49 52 51 53 55 57 57 59 55 49 48
28 27 26 25 25 25 24 25 29 28 29 28 29 30 33 41 48 47 45 41 45 45 45 45 44 44 46 44 45 45 49 51 51 51 49 50 50 54 55 49 44 42 42 41
28 28 26 25 24 26 23 23 23 27 29 26 28 28 29 33 41 44 45 44 39 41 39 36 34 36 36 37 38 40 42 44 45 48 52 53 50 45 41 39 40 39 39 40
29 30 28 28 29 26 22 22 25 27 28 28 29 29 29 31 34 38 38 39 38 36 36 39 39 39 38 39 40 41 41 41 41 43 40 39 39 37 39 40 38 38 39 38
Wind_Direction
215 211 214 215 213 218 216 218 209 217 220 216 218 218 221 225 223 227 219 221 219 232 237 234 237 236 242 245 247 249 251 251 251 253 256 258 261 265 269 271 272 274 277 279
213 207 212 210 218 216 216 217 214 211 216 214 220 219 221 222 229 224 225 223 223 236 231 233 234 235 242 245 246 245 248 252 254 257 260 262 265 266 266 260 271 274 277 277
210 204 209 215 227 216 216 220 219 214 216 220 219 223 220 223 223 222 225 226 223 231 238 230 233 236 240 242 244 247 250 254 251 257 261 262 264 265 267 270 273 275 277 279
208 205 204 212 211 214 214 218 224 222 216 217 220 221 223 223 225 224 225 225 228 226 229 236 233 236 239 240 242 246 250 254 254 255 256 258 262 266 268 271 275 277 279 281
206 205 207 211 211 215 217 217 223 224 217 217 221 215 222 225 224 227 229 229 232 228 229 229 233 242 242 238 240 246 248 251 254 253 255 260 264 265 268 271 275 276 271 276
205 206 209 210 212 216 219 219 223 224 226 219 221 222 221 224 224 224 229 229 230 229 231 233 234 236 240 237 239 243 246 252 256 257 258 259 261 263 264 265 267 271 273 276
200 208 210 210 213 217 221 223 223 226 227 225 224 223 231 225 226 226 228 233 231 231 231 236 235 236 239 239 239 241 245 249 253 255 255 259 264 265 264 267 269 271 273 274
202 212 209 212 212 218 220 224 226 228 229 230 234 233 214 226 230 228 229 231 232 233 233 235 237 239 239 241 241 242 244 246 248 250 254 257 259 263 266 269 269 271 275 276
202 212 218 218 217 220 221 224 229 229 236 235 235 240 235 235 229 228 229 234 231 233 234 237 232 234 242 243 244 244 246 248 249 252 254 255 257 259 262 264 267 270 272 274
202 210 220 223 223 224 224 224 228 234 233 240 238 242 242 239 239 229 230 226 233 237 237 237 240 241 244 245 247 248 250 251 252 254 255 257 260 262 263 265 267 268 271 274
197 206 215 222 225 226 226 230 231 237 239 243 250 234 237 240 238 228 229 230 232 221 227 236 240 243 244 247 249 251 250 253 255 256 257 260 262 263 263 267 267 269 272 274
202 202 207 218 225 226 244 230 234 238 245 237 238 237 238 241 234 218 224 230 233 234 223 231 234 238 244 245 246 250 254 255 255 256 257 260 262 265 265 269 269 273 275 277
175 196 208 217 223 226 229 234 237 242 243 240 232 237 237 239 235 214 217 225 231 224 219 227 235 239 241 242 242 244 251 252 254 256 258 259 261 263 265 267 269 271 273 275
177 190 202 216 223 225 230 231 233 236 233 225 225 232 234 232 227 211 216 222 226 232 230 226 230 237 240 243 244 245 246 249 253 256 260 262 263 266 268 270 272 272 277 278
187 190 198 203 208 211 225 231 233 230 220 206 214 221 229 223 226 229 218 222 220 225 232 225 228 235 239 243 245 247 248 250 253 255 259 262 264 266 269 271 274 275 278 279
201 205 206 201 206 213 220 225 226 221 210 215 217 228 224 225 219 221 229 225 220 223 223 235 230 226 234 241 244 247 249 251 250 250 253 262 263 260 267 267 271 273 279 278
210 207 203 185 193 195 201 205 204 206 204 203 208 217 226 226 223 219 219 225 226 217 223 226 228 228 231 239 241 245 249 252 254 254 252 261 260 261 268 266 273 277 278 279
199 196 205 196 196 200 201 203 200 207 203 203 208 211 217 218 224 225 221 218 220 221 223 227 224 231 232 235 237 243 249 250 254 257 255 262 257 263 268 273 273 275 277 279
208 203 220 206 210 215 217 219 209 200 210 205 209 214 213 215 224 230 224 229 227 228 227 232 229 226 230 235 238 243 242 249 254 257 252 262 262 268 271 267 270 274 279 280
212 210 208 212 220 225 227 237 239 221 222 209 215 219 222 221 223 224 227 225 230 235 236 230 230 234 234 232 237 244 245 248 252 255 259 253 265 268 268 272 271 275 278 279
218 217 218 223 224 227 224 230 234 235 227 223 220 228 220 225 226 227 224 224 226 230 232 235 235 236 236 239 241 241 243 244 251 256 257 260 262 263 265 268 273 274 276 279
219 220 221 222 225 230 234 231 228 230 232 231 226 226 229 235 227 227 230 226 228 230 233 233 236 239 240 242 243 246 249 250 254 256 256 258 261 263 268 269 271 275 278 281
226 229 230 234 235 233 231 230 230 235 234 237 234 231 230 224 226 231 230 234 233 236 238 237 237 236 239 244 247 248 251 254 256 256 260 261 263 264 269 272 275 277 277 280
229 229 230 233 235 237 234 234 232 233 235 231 233 231 230 228 226 230 233 241 235 236 241 243 245 246 246 245 247 246 247 251 253 256 260 261 266 273 274 272 273 275 278 280
224 227 228 231 231 235 230 234 231 228 233 227 228 227 225 226 228 231 234 238 239 237 239 238 234 236 237 237 239 242 245 249 253 257 261 266 269 267 266 269 272 275 277 279
234 234 236 229 231 234 230 227 230 228 228 228 227 229 227 227 228 230 233 234 235 232 231 234 235 239 241 241 243 246 249 252 256 259 258 257 259 265 268 269 271 272 275 275